Location: Tamazert
(32.6352°N, 5.2072°W)
Time: 04:01:44
(UTC+00:00)

Vanguard 2 Rocket - Pass Details

Date: 07 October 2022
Orbit: 555 x 3321 km, 32.9° (Epoch: 05 December)

Event Time Altitude Azimuth Distance (km) Brightness Sun altitude
Rises 22:59:29 0° 261° (W) 7,124 11.6 -58.7°
Reaches altitude 10° 23:04:40 10° 261° (W) 5,875 11.1 -59.3°
Enters shadow 23:11:13 27° 262° (W) 4,218 10.2 -60.0°
Maximum altitude 23:21:45 90° 181° (S) 2,082 - -61.0°
Drops below altitude 10° 23:31:18 10° 85° (E) 3,508 - -61.8°
Sets 23:33:38 0° 86° (E) 4,209 - -61.9°
